Hauptseite
METAR-TAF:

METAR-TAF

Flughäfen :

Hohenfels, Deutschland

Breite: 49-13N, Länge: 011-50E, Höhe: 442 m

Beobachtung

Neuester Wetterbericht von vor 27 Minuten, um 05:56 UTC
Windstille
Temperatur 16°C
Luftfeuchtigkeit 94%
Luftdruck 1019 hPa
Sichtweite 10 km oder mehr
Geschlossene Wolkendecke in der Höhe von 4000 ft

METAR: ETIH 240556Z AUTO 00000KT 9999 OVC040 16/15 A3010 RMK AO2 SLP183 T01590148 10159 20128 50005 $

Zeit: 08:23 (06:23 UTC)


TAF: fehlend

Wetterbeobachtungen und Prognosen von mehr als 4000 Flughäfen (METAR und TAF Bericht).

Die verfügbaren Stationen werden durch gelbe und rote Markierungen auf der Karte dargestellt.

Führen Sie die Maus auf sie, um den Namen der Station zu sehen.

Darauf klicken, um die Beobachtung von Wetterbeobachtungen und Prognosen zu sehen.

Um die Karte zu ändern : klicken Sie auf den grünen Tasten mit einem schwarzen Kreuz Zum Vergrößern, auf den grünen Button mit einem Gedankenstrich zu verkleinern, oder auf die grünen Pfeile für benachbarte Karten.


METAR-TAF: